Wind_Speed
60 61 62 62 63 63 64 64 65 65 64 63 62 63 63 63 64 64 64 64 65 65 65 64 64 64 63 63 62 61 60 59 58 57 56 55 54 53
60 61 62 62 62 63 63 63 64 64 64 62 62 62 62 62 63 63 64 64 65 65 66 66 66 65 65 65 64 63 62 62 61 59 59 57 56 55
60 60 61 61 61 62 62 62 62 63 63 62 62 62 61 61 62 63 64 64 64 64 65 65 65 66 66 66 66 65 64 63 62 61 60 59 58 57
60 60 59 59 60 61 61 61 61 60 61 60 59 60 60 60 60 61 62 63 63 63 64 64 65 65 65 65 66 66 65 65 64 63 61 61 59 59
58 59 58 58 58 59 59 59 58 58 58 58 57 58 58 58 59 60 61 61 61 62 63 63 64 65 65 65 65 65 66 66 65 64 63 62 62 61
58 58 58 57 57 57 57 57 57 57 57 58 57 57 57 57 58 58 59 60 60 61 61 62 63 63 64 65 65 65 65 65 65 65 64 64 64 63
57 57 58 57 56 55 55 56 56 57 57 58 57 57 56 56 57 57 57 58 58 58 59 60 60 61 61 62 64 64 64 65 65 65 65 65 65 64
56 56 56 56 54 54 54 55 56 56 56 56 55 55 54 54 55 54 54 55 55 55 56 56 57 58 59 60 61 62 63 64 64 65 65 65 65 65
54 54 54 54 54 52 52 54 54 54 53 53 52 52 52 52 52 52 52 52 52 52 54 53 54 54 55 56 58 59 61 61 62 63 63 63 63 64
49 50 51 51 51 50 49 50 51 51 51 51 51 50 50 50 50 49 49 50 49 49 51 51 51 52 53 54 55 56 58 59 60 61 62 62 62 62
46 46 46 47 48 48 47 47 47 47 48 48 47 47 47 47 47 47 46 47 47 47 48 49 49 50 51 52 52 53 55 57 58 59 60 60 61 61
45 44 44 45 45 46 45 45 45 46 45 45 45 45 44 44 44 45 44 44 44 44 46 47 48 49 51 51 51 51 52 54 56 57 58 59 60 61
44 43 43 43 43 44 43 42 43 43 43 43 43 43 43 43 42 42 43 43 42 42 43 45 45 47 49 49 50 50 51 52 54 55 55 57 58 59
43 43 43 43 43 43 42 41 40 41 41 41 42 42 42 41 41 41 42 42 41 40 41 43 43 44 45 46 47 48 49 49 50 51 52 53 55 56
43 42 42 42 42 42 41 40 40 40 40 40 40 40 40 40 41 41 42 41 40 40 40 41 42 43 43 43 43 44 46 47 47 48 48 49 51 52
41 41 41 41 41 41 41 40 40 39 39 39 39 39 40 40 40 40 40 41 41 41 41 41 40 41 42 42 42 42 43 44 44 45 45 46 47 49
39 38 38 39 39 39 40 40 39 39 39 39 38 38 38 39 39 39 39 40 39 40 40 40 40 40 40 40 40 40 41 41 42 43 43 43 44 45
38 37 36 36 36 37 37 38 37 36 36 36 36 36 36 37 37 37 38 39 39 39 39 39 39 39 39 39 39 39 39 40 40 41 42 42 42 44
37 36 36 35 34 34 35 35 35 35 35 35 35 36 36 36 36 36 37 38 38 38 38 39 39 39 39 38 38 39 39 39 40 41 40 40 40 41
36 35 34 34 33 33 34 34 34 34 34 34 35 35 35 35 35 35 35 35 36 37 37 37 38 38 37 37 38 39 39 39 39 39 39 39 39 40
35 34 33 33 32 32 32 33 33 33 33 33 33 34 35 34 34 33 34 34 35 35 36 36 36 36 36 36 37 37 38 38 38 38 38 38 39 40
32 32 31 31 30 31 31 32 32 32 32 32 32 33 33 32 33 33 33 33 34 35 35 35 36 35 35 36 36 36 37 37 37 37 37 38 38 37
29 30 30 30 29 30 30 31 31 31 31 31 31 31 31 31 32 32 32 33 33 33 34 35 35 35 35 35 36 36 36 36 37 36 35 35 35 35
Wind_Direction
268 268 268 269 269 269 268 267 267 265 262 261 261 260 259 259 258 258 257 257 256 255 254 253 252 252 251 251 251 250 251 251 251 251 252 252 253 253
269 269 269 269 269 269 268 268 267 265 263 261 261 260 259 258 258 257 257 256 256 255 254 253 252 251 250 250 250 250 251 251 251 251 251 252 252 252
269 269 269 269 269 269 268 268 267 266 264 261 261 260 259 259 258 257 257 256 256 255 254 253 252 251 250 249 249 249 250 250 250 250 250 251 251 252
269 269 270 270 270 269 268 267 266 265 263 262 260 260 259 259 259 258 257 256 256 255 254 253 252 251 250 249 248 248 248 248 249 249 249 250 250 251
271 270 270 271 270 269 268 267 266 264 263 262 260 260 260 259 259 258 257 256 256 255 254 253 252 251 250 249 248 248 248 248 248 248 248 249 250 250
272 271 270 270 270 268 267 266 265 264 263 261 260 260 260 260 259 259 258 257 256 255 254 253 252 251 250 249 249 248 248 247 247 247 247 248 249 249
273 271 270 270 269 267 266 265 264 264 263 261 260 260 260 260 259 259 258 257 257 256 255 254 252 252 251 250 249 249 248 248 247 247 247 247 248 249
273 271 270 269 268 266 266 265 264 264 262 261 259 259 259 259 259 258 258 257 256 255 254 253 253 252 251 250 250 249 249 248 248 247 247 247 248 249
274 272 269 268 267 266 266 265 264 263 262 260 259 258 259 258 258 258 258 257 256 254 254 253 253 252 251 250 249 249 249 248 248 247 247 248 248 249
274 272 270 268 267 266 266 265 264 262 261 259 259 258 257 257 257 257 257 257 255 253 253 254 253 252 251 250 250 249 249 248 248 247 247 247 248 248
274 272 270 268 268 267 266 264 262 261 259 257 257 257 256 256 257 256 255 256 255 254 254 254 253 252 251 251 250 251 250 248 248 247 246 247 248 248
271 270 269 268 268 267 265 263 261 259 257 256 255 254 254 255 255 255 253 254 254 254 253 254 254 253 252 251 250 251 251 249 248 247 247 247 248 248
269 269 268 268 267 266 265 264 261 258 257 256 254 253 253 253 254 254 252 252 254 254 254 254 254 252 252 250 250 251 251 251 249 247 247 248 248 248
268 268 268 267 267 265 264 262 260 258 257 255 254 252 251 252 253 254 253 253 253 254 255 255 253 252 252 251 250 250 251 250 249 248 247 247 248 248
268 268 268 267 265 264 262 260 258 257 256 255 253 252 252 252 253 254 255 253 253 254 254 253 253 252 252 251 249 249 249 249 249 248 247 247 248 248
267 266 266 267 264 263 260 258 256 257 256 254 252 251 252 253 255 254 253 252 253 254 254 254 255 254 253 252 250 249 249 249 248 247 247 248 248 249
267 266 266 266 265 262 259 256 256 256 255 254 253 251 251 252 252 252 252 252 252 253 253 254 255 255 253 251 249 249 249 249 249 248 247 248 249 250
268 267 266 265 264 261 258 256 255 254 253 252 252 251 250 251 250 251 252 251 251 252 252 252 253 252 250 250 250 249 249 248 248 247 247 248 250 250
267 266 264 262 261 260 258 256 253 253 252 251 251 249 249 250 249 250 250 250 250 250 250 251 251 249 249 249 249 249 249 248 247 246 247 249 249 249
264 263 261 260 258 258 256 255 252 251 251 250 252 252 251 251 249 249 249 249 248 248 248 249 249 248 247 247 247 247 246 246 246 245 246 247 247 247
263 261 259 257 257 257 255 253 251 249 250 250 251 252 251 250 249 248 248 248 248 247 246 246 245 245 246 246 245 245 245 245 245 244 244 245 246 246
261 260 257 255 255 254 253 251 250 249 249 248 249 249 249 249 249 248 248 248 248 247 247 246 245 245 245 246 246 246 245 244 245 245 245 245 247 247
260 259 256 253 253 252 252 250 249 248 247 246 246 246 246 247 247 247 247 247 248 248 247 247 247 246 246 246 246 246 245 245 244 244 247 248 249 249
Height
5604 5604 5603 5603 5603 5602 5602 5602 5604 5606 5610 5612 5611 5612 5612 5614 5616 5618 5621 5624 5626 5629 5632 5636 5640 5644 5648 5652 5656 5660 5664 5667 5671 5675 5679 5682 5686 5689
5586 5585 5585 5584 5584 5583 5583 5583 5583 5584 5588 5593 5592 5593 5593 5595 5597 5599 5601 5604 5607 5610 5613 5616 5620 5625 5629 5633 5638 5643 5647 5651 5655 5659 5663 5667 5671 5675
5567 5567 5566 5565 5565 5564 5564 5564 5564 5565 5568 5573 5573 5574 5575 5576 5578 5580 5582 5585 5588 5590 5593 5597 5601 5605 5609 5614 5619 5624 5629 5634 5638 5643 5647 5651 5655 5660
5549 5548 5548 5547 5546 5545 5545 5546 5546 5547 5548 5552 5555 5555 5557 5558 5559 5561 5564 5566 5569 5572 5574 5578 5581 5586 5590 5595 5600 5605 5611 5615 5620 5625 5631 5636 5640 5643
5531 5530 5530 5529 5528 5527 5527 5528 5528 5529 5530 5533 5536 5538 5539 5540 5541 5543 5545 5548 5550 5553 5556 5559 5563 5567 5571 5576 5581 5587 5592 5598 5604 5609 5612 5617 5622 5626
5513 5513 5512 5511 5510 5510 5510 5510 5511 5512 5513 5515 5518 5521 5522 5523 5524 5526 5528 5530 5532 5534 5537 5540 5544 5548 5553 5558 5564 5569 5574 5578 5584 5589 5595 5600 5605 5610
5496 5495 5494 5493 5492 5492 5492 5493 5493 5494 5496 5498 5500 5503 5505 5505 5507 5508 5510 5513 5515 5516 5518 5523 5526 5531 5534 5539 5544 5549 5554 5560 5565 5571 5576 5582 5587 5592
5479 5477 5476 5476 5475 5475 5475 5476 5476 5477 5479 5481 5483 5486 5488 5489 5490 5491 5493 5496 5499 5502 5501 5505 5508 5512 5517 5522 5526 5531 5536 5541 5547 5552 5558 5564 5569 5575
5461 5460 5459 5459 5458 5458 5459 5459 5459 5460 5462 5464 5467 5470 5472 5474 5474 5476 5477 5479 5483 5485 5486 5490 5493 5496 5500 5504 5509 5513 5518 5523 5529 5534 5540 5546 5551 5557
5445 5444 5443 5443 5442 5442 5443 5443 5444 5446 5447 5449 5452 5455 5456 5457 5459 5460 5462 5464 5467 5469 5471 5474 5478 5481 5485 5489 5493 5497 5501 5506 5511 5517 5523 5529 5534 5539
5431 5429 5428 5428 5428 5427 5428 5429 5430 5432 5433 5435 5437 5439 5441 5443 5444 5446 5448 5450 5453 5456 5457 5460 5463 5466 5470 5474 5477 5481 5485 5489 5495 5500 5506 5512 5517 5522
5417 5416 5415 5414 5414 5413 5413 5415 5416 5418 5419 5422 5424 5426 5428 5430 5431 5433 5435 5437 5439 5443 5445 5446 5449 5451 5456 5460 5463 5466 5470 5474 5478 5484 5490 5495 5500 5505
5403 5402 5402 5401 5401 5400 5401 5402 5403 5404 5406 5408 5411 5413 5415 5417 5419 5421 5423 5425 5428 5431 5432 5433 5436 5438 5441 5446 5449 5452 5455 5459 5463 5468 5473 5479 5483 5488
5389 5389 5388 5388 5388 5388 5388 5389 5390 5391 5393 5395 5398 5401 5403 5405 5407 5409 5411 5413 5416 5418 5420 5421 5423 5425 5428 5432 5436 5439 5442 5445 5449 5454 5458 5463 5468 5472
5376 5375 5375 5374 5374 5375 5376 5377 5378 5379 5381 5383 5386 5389 5391 5394 5396 5398 5399 5402 5404 5406 5407 5409 5411 5413 5415 5419 5423 5426 5429 5432 5436 5440 5444 5449 5453 5457
5363 5362 5362 5361 5361 5362 5363 5364 5366 5368 5370 5372 5375 5377 5380 5382 5384 5386 5388 5390 5392 5394 5396 5397 5399 5401 5404 5407 5410 5414 5417 5420 5424 5428 5431 5435 5439 5443
5350 5350 5350 5350 5350 5350 5351 5353 5354 5356 5358 5361 5363 5366 5368 5370 5372 5374 5377 5379 5381 5383 5385 5387 5388 5390 5393 5396 5399 5402 5405 5409 5412 5416 5419 5423 5426 5430
5338 5338 5338 5339 5339 5340 5341 5342 5344 5346 5348 5350 5353 5355 5357 5359 5361 5363 5365 5368 5370 5372 5374 5375 5377 5379 5382 5385 5388 5391 5394 5398 5401 5404 5407 5411 5415 5418
5327 5327 5328 5328 5329 5330 5331 5333 5335 5337 5339 5341 5343 5345 5347 5349 5351 5353 5355 5357 5359 5361 5363 5365 5367 5369 5372 5375 5378 5380 5383 5387 5389 5393 5396 5400 5403 5407
5316 5316 5317 5318 5319 5320 5321 5323 5325 5327 5329 5331 5333 5334 5336 5338 5340 5342 5344 5346 5348 5350 5352 5354 5356 5358 5361 5364 5367 5370 5372 5375 5379 5382 5385 5388 5392 5395
5305 5306 5307 5308 5309 5310 5312 5314 5315 5317 5319 5321 5323 5325 5327 5329 5331 5333 5334 5336 5338 5340 5342 5344 5346 5348 5350 5353 5357 5360 5362 5365 5368 5371 5374 5377 5381 5384
5294 5295 5297 5298 5299 5301 5302 5304 5306 5308 5310 5312 5314 5316 5318 5320 5322 5324 5325 5327 5328 5330 5332 5334 5336 5338 5341 5344 5347 5350 5353 5355 5358 5361 5364 5368 5370 5374
5285 5286 5287 5289 5290 5292 5293 5295 5297 5299 5300 5302 5305 5307 5309 5311 5313 5314 5316 5318 5319 5321 5323 5325 5327 5329 5332 5335 5337 5340 5344 5346 5349 5352 5355 5357 5360 5363